This demonstration page uses our WeatherBlox Daily Observations layout. Learn more.

Left ArrowRight Arrow

39.92423, -83.80882

Hourly Observations for September 5, 2020

Temp ( °F °C ) Dew Point ( °F °C ) Humidity (%) Winds ( mph kmh ) Pressure ( in mb ) Visibility ( mi km ) Precip ( " mm )
12:56 am 00:56 Clear 53 11.7 51 10.6 93 93 SW 6 9 30.25 1025 10 16 N/A
1:56 am 01:56 Clear 52 11.1 51 10.6 97 97 N N/A 30.26 1025 10 16 N/A
2:56 am 02:56 Clear 50 10 50 10 100 100 WSW 3 6 30.26 1025 10 16 N/A
3:56 am 03:56 Clear 50 10 50 10 100 100 N N/A 30.26 1025 10 16 N/A
4:56 am 04:56 Clear 49 9.4 49 9.4 100 100 N N/A 30.27 1025 10 16 N/A
5:56 am 05:56 Clear 49 9.4 49 9.4 100 100 S 3 6 30.26 1025 10 16 N/A
6:56 am 06:56 Clear 48 8.9 48 8.9 100 100 N N/A 30.28 1026 10 16 N/A
7:56 am 07:56 Sunny 53 11.7 52 11.1 96 96 N N/A 30.31 1026 10 16 N/A
8:56 am 08:56 Sunny 59 15 54 12.2 83 83 SW 3 6 30.32 1027 10 16 N/A
9:56 am 09:56 Sunny 66 18.9 53 11.7 63 63 SW 5 7 30.31 1026 10 16 N/A
10:56 am 10:56 Sunny 70 21.1 51 10.6 51 51 WSW 10 17 30.31 1026 10 16 N/A
11:56 am 11:56 Sunny 75 23.9 52 11.1 45 45 W 10 17 30.29 1026 10 16 N/A
12:56 pm 12:56 Sunny 77 25 53 11.7 43 43 SW 9 15 30.28 1025 10 16 N/A
1:56 pm 13:56 Sunny 79 26.1 52 11.1 39 39 WSW 8 13 30.27 1025 10 16 N/A
2:56 pm 14:56 Sunny 80 26.7 51 10.6 37 37 SW 14 22 30.25 1025 10 16 N/A
3:56 pm 15:56 Sunny 81 27.2 52 11.1 37 37 SW 10 17 30.23 1024 10 16 N/A
4:56 pm 16:56 Sunny 81 27.2 49 9.4 33 33 SW 12 19 30.21 1023 10 16 N/A
5:56 pm 17:56 Sunny 80 26.7 51 10.6 37 37 SW 9 15 30.19 1022 10 16 N/A
6:56 pm 18:56 Sunny 77 25 52 11.1 42 42 SW 7 11 30.19 1022 10 16 N/A
7:56 pm 19:56 Sunny 71 21.7 52 11.1 51 51 WSW 7 11 30.20 1023 10 16 N/A
8:56 pm 20:56 Clear 66 18.9 54 12.2 65 65 WSW 7 11 30.21 1023 10 16 N/A
9:56 pm 21:56 Clear 64 17.8 54 12.2 70 70 SW 6 9 30.21 1023 10 16 N/A
10:56 pm 22:56 Mostly Clear 64 17.8 55 12.8 73 73 SSW 6 9 30.21 1023 10 16 N/A
11:56 pm 23:56 Mostly Cloudy 64 17.8 55 12.8 73 73 SW 7 11 30.21 1023 10 16 N/A

Powered by AerisWeather